User: anonymous   Login
Location: Unspecified
(0.0000°N, 0.0000°E)
Time: 07:11:59
(UTC+00:00)
Language:

OBJECT PK - Orbit

View from above orbital plane
View from above orbital plane
View from above satellite
View from above satellite

Ground track
Ground track

The orbit data is extracted from the following two-line orbital elements,

1 43598U 98067PK  20223.87796500 +.00387536 +80632-4 +52636-3 0  9990
2 43598 051.6230 348.8916 0010701 325.5906 034.4412 16.05641334113899
Epoch (UTC): 10 August 2020 21:04:16
Eccentricity: 0.0010701
inclination: 51.6230°
perigee height: 252 km
apogee height: 266 km
right ascension of ascending node: 348.8916°
argument of perigee: 325.5906°
revolutions per day: 16.05641334
mean anomaly at epoch: 34.4412°
orbit number at epoch: 11389

The dashed part of the orbit path shows where the satellite is in the earth's shadow,  

DLR